Tracking 19831 objects as of 23-Aug-2019
HD Live streaming from Space Station
objects crossing your sky now

MOLNIYA 3-47

Track MOLNIYA 3-47 now!
MOLNIYA 3-47 is classified as:


NORAD ID: 23642
Int'l Code: 1995-042A
Perigee: 1,804.7 km
Apogee: 38,327.7 km
Inclination: 63.2 °
Period: 713.0 minutes
Semi major axis: 26437 km
RCS: 13.479 m2 (large)
Launch date: August 9, 1995
Source: Commonwealth of Independent States (former USSR) (CIS)
Launch site: PLESETSK MISSILE AND SPACE COMPLEX (PKMTR)
aabbcc
Your satellite tracking list
Your tracking list is empty




NASA's NSSDC Master Catalog

Two Line Element Set (TLE):
1 23642U 95042A   19234.83813735 -.00001114  00000-0 -27119-1 0  9994
2 23642  63.1744 189.2618 6907518 289.4114  11.7141  2.01966723176313
Source of the keplerian elements: AFSPC